Location: Newark
(25.0000°N, 73.5000°E)
Time: 01:06:34
(UTC+00:00)

Tiros 1 despin weight - Pass Details

Date: 02 March 2021
Orbit: 593 x 641 km, 48.2° (Epoch: 15 April)

Event Time Altitude Azimuth Distance (km) Brightness Sun altitude
Rises 19:18:54 0° 277° (W) 2,873 - -71.9°
Reaches altitude 10° 19:22:45 10° 310° (NW) 1,983 - -71.9°
Maximum altitude 19:24:23 12° 331° (NNW) 1,879 - -71.8°
Drops below altitude 10° 19:26:01 10° 352° (N) 1,995 - -71.8°
Sets 19:29:57 0° 25° (NNE) 2,917 - -71.7°
